Weather Roundup
Issued by NWS

Home | Current Version | Previous Version | Text Only | Print | Product List | Glossary On
Versions: 1 2 3 4 5 6 7 8 9 10 11 12 13 14 15 16 17 18 19 20 21 22 23 24 25 26 27 28 29 30 31 32 33 34 35 36 37 38 39 40 41 42 43 44 45 46 47 48 49 50
000
NZUS93 KARX 280110
HRRWXR

CURRENT HOURLY OBSERVATIONS ACROSS
MUCH OF THE UPPER MISSISSIPPI VALLEY
NATIONAL WEATHER SERVICE LA CROSSE WI
700 PM CST TUE JAN 27 2015


...SOUTHEAST MINNESOTA...


CITY           SKY/WX    TMP DP  RH WIND       PRES   REMARKS
ROCHESTER      CLOUDY    28  24  85 S10       30.14F WCI  19
ROCHESTER/MAYO CLOUDY    29  23  78 SE10G16   30.14F WCI  20
WINONA         CLOUDY    30  23  74 SE5       30.20S WCI  25
AUSTIN         CLOUDY    30  27  86 S9        30.14R WCI  22
ALBERT LEA     CLOUDY    32  28  86 SE13      30.12S WCI  22
DODGE CENTER   CLOUDY    30  28  93 SE9       30.13S WCI  22
PRESTON        CLOUDY    28  24  86 SE6       30.16S WCI  21
OWATONNA       CLOUDY    32  27  80 SE10      30.13S WCI  24
FARIBAULT      CLOUDY    32  28  86 SE10      30.13S WCI  24
$$

...ELSEWHERE IN MINNESOTA...


CITY           SKY/WX    TMP DP  RH WIND       PRES   REMARKS
MINNEAPOLIS    CLOUDY    31  25  78 SE9       30.14S WCI  23
INTNL FALLS    LGT SNOW  29  26  89 SE6       30.05S VSB 1   WCI  23
DULUTH         CLOUDY    27  22  81 S6        30.11R WCI  20
RED WING       CLOUDY    30  25  80 SE8       30.16S WCI  23
REDWOOD FALLS  CLOUDY    35  31  85 SE13      30.05S WCI  26
MANKATO        CLOUDY    34  27  75 SE13      30.11S WCI  25
WORTHINGTON    CLEAR     34  30  86 SE13      30.03F WCI  25
FAIRMONT       PTCLDY    34  25  69 SE12      30.07F WCI  25
$$

...SOUTHWEST WISCONSIN...


CITY           SKY/WX    TMP DP  RH WIND       PRES   REMARKS
LA CROSSE      CLOUDY    30  22  72 S7        30.21R WCI  23
PRAIRIE DU CHI CLOUDY    28  20  71 CALM      30.24R
BOSCOBEL       CLOUDY    28  21  75 S3        30.22S
LONE ROCK      CLOUDY    28  24  85 E5        30.22F FOG     WCI  23
PLATTEVILLE    CLOUDY    27  24  86 SE5       30.19F WCI  22
FORT MC COY    CLOUDY    26  21  81 CALM      30.21S
CAMP DOUGLAS   CLOUDY    27  27 100 E6        30.19F WCI  20
VIROQUA        CLOUDY    25  22  86 S3        30.18R
WIS DELLS      CLOUDY    26  24  93 E6        30.20F FOG     WCI  19
$$

...ELSEWHERE IN WISCONSIN...


CITY           SKY/WX    TMP DP  RH WIND       PRES   REMARKS
MILWAUKEE      MOCLDY    27  17  66 N3        30.25R
MADISON        CLOUDY    27  21  78 E3        30.21F
GREEN BAY      PTCLDY    20  16  84 CALM      30.25R
EAU CLAIRE     CLOUDY    28  20  71 S5        30.19R WCI  23
BLACK RVR FLS  CLOUDY    27  22  81 SE3       30.19F
MEDFORD        CLOUDY    23  19  86 CALM      30.15S
WAUSAU         CLOUDY    24  19  81 SE6       30.17F WCI  17
WIS RAPIDS     CLOUDY    25  21  85 SE5       30.21F WCI  19
MARSHFIELD     CLOUDY    25  20  81 SE5       30.17F WCI  19
RICE LAKE      CLOUDY    27  21  78 SE6       30.18R WCI  21
$$

...NORTHEAST IOWA...


CITY           SKY/WX    TMP DP  RH WIND       PRES   REMARKS
DECORAH        CLOUDY    28  23  80 SE7       30.17F WCI  21
MASON CITY     CLOUDY    32  28  85 SE13      30.14S WCI  22
CHARLES CITY   CLOUDY    30  28  93 SE10      30.17R WCI  21
OELWEIN        CLOUDY    30  25  80 SE8       30.19R WCI  23
$$

...ELSEWHERE IN IOWA...


CITY           SKY/WX    TMP DP  RH WIND       PRES   REMARKS
DES MOINES     CLEAR     36  29  75 SE10      30.15S WCI  28
IOWA CITY      CLOUDY    29  24  82 SE9       30.24R WCI  20
FORT DODGE     CLEAR     34  28  80 SE9       30.11S WCI  26
$$

...NORTHERN ILLINOIS...


CITY           SKY/WX    TMP DP  RH WIND       PRES   REMARKS
CHICAGO-OHARE  PTCLDY    25  16  68 NE6       30.24R WCI  18
CHICAGO-MIDWAY PTCLDY    28  17  63 N7        30.25R WCI  21
MOLINE         CLOUDY    27  22  81 SE6       30.24S WCI  20
ROCKFORD       MOCLDY    30  23  75 CALM      30.25S
PEORIA         CLOUDY    31  24  75 CALM      30.25R
$$

NOTE: "FAIR" INDICATES FEW OR NO CLOUDS BELOW 12,000 FEET WITH NO
SIGNIFICANT WEATHER AND/OR OBSTRUCTIONS TO VISIBILITY. WIND
SPEEDS ARE IN MILES-PER-HOUR.



USA.gov is the U.S. government's official web portal to all federal, state and local government web resources and services.